Retour au catalogue

COSMOS 1375 DEB

ActifLEO
NORAD 17797·DEBRIS·🇷🇺 Russia

Lancé Jun 6, 1982 depuis Plesetsk Cosmodrome

Loading…

Prochains Passages (prochaines 24 heures)

TLE

FraisSource: Space-Track

Époque: Sep 14, 2026, 21:47 UTC

1 17797U 82055AP  26257.90771056  .00000465  00000-0  43489-3 0  9994
2 17797  65.8251  66.5878 0014764 212.9876 298.4747 13.91271103 64253

Suivez COSMOS 1375 DEB en temps réel avec AllMySat

Download on the App Store